Content
SEND FEEDBACK

Daily
Averages
Monthly
Summary
French Polynesia

PAPEETE, FRENCH POLYNESIA


Home > Oceania > French Polynesia
Elevation: 2 meters     Latitude: 17 33S     Longitude: 149 36W

WEATHER
 
SELECT A DAY
Number of Records: 208,190;   Date Range: 6/30/96 - 7/27/14
 
SHARE

PRINT THIS DATA

[ ← Previous Day ]
WEATHER ALMANAC - 31 DECEMBER, 2012
[ Next Day → ]
[ °F ]   °C
Weather ElementAverageHighLow
Temperature27.3 °C30 °C (2:09 pm)25 °C (1:30 am)
Dewpoint22.8 °C24 °C (8:00 am)21.7 °C (2:00 am)
Humidity75.7 %84 % (7:00 pm)59 % (2:00 pm)
Barometer1012.2 hPa1013.9 hPa (8:00 am)1010.2 hPa (3:00 pm)
Wind Speed5.5 km/h16.7 km/h (12:30 pm)
Weather ElementAverage
Visibility12.7 km
Wind DirectionENE (77.5 °)

Weather ElementTotal
Precipitation---
Cooling Degree Days9.2 (Base 18.3)
Growing Degree Days17.5 (Base 10)
Averaged from 52 records on 31 December, 2012
WEATHER CONDITIONS BREAKOUT
WIND DIRECTION BREAKOUT
WEATHER BY HOUR - 31 DECEMBER, 2012
[ °F ]   °C
Local TimeTemperatureDewpointHumidityBarometerVisibilityWind DirectionWind SpeedGust SpeedPrecipitationEventsConditions
12:30 AM26 °C22 °C78 %1012.2 hPa10 kmEast (100°)3.7 km/hPartly Cloudy
1:00 AM26 °C22 °C78 %1012.2 hPa10 kmEast (80°)5.6 km/hPartly Cloudy
1:30 AM25 °C22 °C83 %1012.2 hPa10 kmEast (90°)7.4 km/hPartly Cloudy
2:00 AM25.6 °C21.7 °C74 %1011.9 hPa25.7 kmESE (110°)7.2 km/hScattered Clouds
2:00 AM26 °C22 °C78 %1011.2 hPa10 kmESE (110°)3.7 km/hPartly Cloudy
2:30 AM26 °C22 °C78 %1011.2 hPa10 kmCalmPartly Cloudy
3:00 AM26 °C22 °C78 %1011.2 hPa10 kmCalmPartly Cloudy
3:30 AM25 °C22 °C83 %1011.2 hPa10 kmESE (110°)3.7 km/h
4:00 AM25 °C22 °C83 %1011.2 hPa10 kmESE (110°)3.7 km/h
4:30 AM25 °C22 °C83 %1011.2 hPa10 kmCalm
5:00 AM25 °C22.2 °C79 %1012.2 hPa49.9 kmSE (130°)3.7 km/hClear
5:00 AM25 °C22 °C83 %1012.2 hPa10 kmVariable3.7 km/h
5:30 AM25 °C22 °C83 %1012.2 hPa10 kmCalm
6:00 AM25 °C22 °C83 %1012.2 hPa10 kmCalmPartly Cloudy
6:30 AM26 °C23 °C83 %1013.2 hPa10 kmEast (100°)5.6 km/hPartly Cloudy
7:00 AM28 °C23 °C74 %1013.2 hPa10 kmCalmPartly Cloudy
7:30 AM29 °C23 °C70 %1013.2 hPa10 kmWSW (240°)5.6 km/hPartly Cloudy
8:00 AM28.9 °C23.3 °C66 %1013.9 hPa25.7 kmWSW (240°)5.6 km/hPartly Cloudy
8:00 AM29 °C24 °C74 %1013.2 hPa10 kmWSW (240°)5.6 km/hPartly Cloudy
8:30 AM29 °C24 °C74 %1013.2 hPa10 kmWest (260°)5.6 km/hPartly Cloudy
9:00 AM29 °C24 °C74 %1013.2 hPa10 kmVariable5.6 km/hPartly Cloudy
9:30 AM29 °C23 °C70 %1013.2 hPa10 kmVariable3.7 km/hPartly Cloudy
10:00 AM29 °C23 °C70 %1013.2 hPa10 kmVariable1.9 km/hPartly Cloudy
10:30 AM29 °C24 °C74 %1013.2 hPa10 kmVariable3.7 km/hPartly Cloudy
11:00 AM28.9 °C23.3 °C66 %1013.2 hPa25.7 kmWSW (250°)3.7 km/hMostly Cloudy
11:00 AM29 °C23 °C70 %1013.2 hPa10 kmVariable3.7 km/hMostly Cloudy
11:30 AM28 °C24 °C79 %1012.2 hPa10 kmNE (50°)7.4 km/hMostly Cloudy
12:00 PM28 °C24 °C79 %1012.2 hPa10 kmEast (80°)11.1 km/hMostly Cloudy
12:30 PM28 °C23 °C74 %1012.2 hPa10 kmENE (70°)16.7 km/hMostly Cloudy
1:00 PM28 °C23 °C74 %1012.2 hPa10 kmENE (70°)13 km/hMostly Cloudy
2:00 PM29.4 °C22.8 °C59 %1011.5 hPa14.5 kmNorth5.6 km/hMostly Cloudy
2:09 PM30 °C22 °C62 %1011.2 hPa10 kmNorth (10°)5.6 km/hMostly Cloudy
2:30 PM30 °C23 °C66 %1011.2 hPa10 kmWNW (300°)5.6 km/hMostly Cloudy
3:00 PM30 °C24 °C70 %1010.2 hPa10 kmVariable3.7 km/hMostly Cloudy
3:30 PM29 °C23 °C70 %1010.2 hPa10 kmVariable5.6 km/hMostly Cloudy
4:00 PM28 °C23 °C74 %1010.2 hPa10 kmEast (80°)5.6 km/hMostly Cloudy
4:30 PM28 °C23 °C74 %1010.2 hPa10 kmVariable5.6 km/hMostly Cloudy
5:00 PM28.3 °C23.3 °C67 %1011.2 hPa19.3 kmEast (80°)3.7 km/hRainLight Rain Showers
5:00 PM28 °C23 °C74 %1010.2 hPa10 kmVariable3.7 km/hMostly Cloudy
5:30 PM28 °C23 °C74 %1011.2 hPa10 kmNNE (30°)7.4 km/hScattered Clouds
6:00 PM28 °C23 °C74 %1011.2 hPa10 kmNNE (30°)11.1 km/hPartly Cloudy
6:30 PM28 °C23 °C74 %1011.2 hPa10 kmNE (50°)13 km/hScattered Clouds
7:00 PM27 °C24 °C84 %1012.2 hPa10 kmNE (50°)9.3 km/hPartly Cloudy
7:30 PM27 °C23 °C79 %1012.2 hPa10 kmVariable3.7 km/hPartly Cloudy
8:00 PM26.7 °C23.3 °C77 %1012.9 hPa19.3 kmESE (110°)1.9 km/hPartly Cloudy
8:00 PM27 °C23 °C79 %1012.2 hPa10 kmVariable1.9 km/hPartly Cloudy
8:30 PM26 °C23 °C83 %1012.2 hPa10 kmSouth (180°)7.4 km/hPartly Cloudy
9:00 PM26 °C23 °C83 %1012.2 hPa10 kmSouth (180°)11.1 km/hPartly Cloudy
9:30 PM26 °C23 °C83 %1013.2 hPa10 kmSouth (170°)11.1 km/hPartly Cloudy
10:00 PM26 °C23 °C83 %1013.2 hPa10 kmSouth (180°)9.3 km/hPartly Cloudy
10:34 PM26 °C22 °C78 %1013.2 hPa10 kmVariable5.6 km/hPartly Cloudy
11:00 PM26.1 °C22.2 °C75 %1012.9 hPa45.1 kmSE (140°)7.2 km/hClear
Hourly data recorded from NTAA, located 0 kilometers away from Papeete, French Polynesia







STORIES FROM OUR PARTNERS